Regional Weather Roundup
Issued by NWS

Home | Current Version | Previous Version | Graphics & Text | Print | Product List | Glossary On
Versions: 1 2 3 4 5 6 7 8 9 10 11 12 13 14 15 16 17 18 19 20 21 22 23 24 25 26 27 28 29 30 31 32 33 34 35 36 37 38 39 40 41 42 43 44 45 46 47 48 49 50
000
ASUS43 KOAX 182010
RWRNE

WEATHER ROUNDUP FOR NEBRASKA
NATIONAL WEATHER SERVICE OMAHA NE
300 PM CDT MON SEP 18 2017

NOTES: SATELLITE DATA IS BEING USED TO AUGMENT CLOUD COVER ABOVE
       12000 FEET.
       "FAIR" INDICATES FEW OR NO CLOUDS BELOW 12,000 FEET WITH NO
       SIGNIFICANT WEATHER AND/OR OBSTRUCTIONS TO VISIBILITY.


NEZ001>004-019>022-054>056-182100-
NEBRASKA PANHANDLE

CITY           SKY/WX    TMP DP  RH WIND       PRES   REMARKS
SCOTTSBLUFF    SUNNY     82  46  28 VRB7      29.89F
ALLIANCE       SUNNY     80  35  19 SW14G21   29.89F
CHADRON        SUNNY     83  28  13 SW14G21   29.83F
GORDON         FAIR      80  33  18 W9        29.87F
KIMBALL        SUNNY     79  35  20 W7        29.97F
SIDNEY         SUNNY     82  28  14 W8        29.94F
$$

NEZ057>060-069>072-079>082-182100-
SOUTHWEST NEBRASKA

CITY           SKY/WX    TMP DP  RH WIND       PRES   REMARKS
NORTH PLATTE   SUNNY     79  57  46 SE6       29.90F
IMPERIAL       SUNNY     84  40  21 S6        29.91F
LEXINGTON      CLOUDY    72  61  67 SE6       29.92F
MCCOOK         SUNNY     78  58  49 VRB3      29.90F
OGALLALA       SUNNY     83  41  21 S8        29.90F
$$

NEZ005>010-023>029-035>040-094-182100-
NORTH CENTRAL NEBRASKA

CITY           SKY/WX    TMP DP  RH WIND       PRES   REMARKS
VALENTINE      SUNNY     81  50  33 W3        29.84F
AINSWORTH      SUNNY     76  59  55 S10       29.87F
BROKEN BOW     MOSUNNY   72  60  66 SE9       29.92S
O`NEILL        SUNNY     73  63  70 S13       29.88F
ORD            CLOUDY    71  59  65 S12       29.90F
THEDFORD       SUNNY     83  51  33 SW10      29.88F
$$

NEZ041-046>049-061>064-073>077-083>087-182100-
SOUTH CENTRAL NEBRASKA

CITY           SKY/WX    TMP DP  RH WIND       PRES   REMARKS
GRAND ISLAND   CLOUDY    74  65  73 VRB5      29.91F
AURORA         MOSUNNY   72  67  83 SE6       29.92F
HASTINGS       CLOUDY    75  63  66 CALM      29.92F
HEBRON         CLOUDY    77  65  66 CALM      29.91F
HOLDREGE       SUNNY     76  58  52 SW5       29.92F
KEARNEY        PTSUNNY   74  62  66 VRB3      29.92F
YORK           CLOUDY    70  66  88 SE7       29.93F
$$

NEZ011>018-030>034-042>045-182100-
NORTHEAST NEBRASKA

CITY           SKY/WX    TMP DP  RH WIND       PRES   REMARKS
NORFOLK        CLOUDY    72  65  78 S8        29.90F
ALBION         CLOUDY    72  65  78 S6        29.91F
BLAIR          CLOUDY    69  66  89 S10       29.93F
COLUMBUS       CLOUDY    72  66  83 S10       29.91F
FREMONT        CLOUDY    70  66  87 S8        29.93F
TEKAMAH        CLOUDY    72  65  78 S12       29.92S
WAYNE          PTSUNNY   74  70  86 S12       29.89F
$$

NEZ050>053-065>068-078-088>093-182100-
SOUTHEAST NEBRASKA

CITY           SKY/WX    TMP DP  RH WIND       PRES   REMARKS
LINCOLN        CLOUDY    70  68  93 SE8       29.93F FOG
OMAHA EPPLEY   CLOUDY    71  65  81 S9        29.93F
BEATRICE       CLOUDY    74  67  78 SW8       29.93F
FALLS CITY     CLOUDY    72  67  84 SE8       29.94F
NEBRASKA CITY  CLOUDY    69  69 100 S15       29.93F
PLATTSMOUTH    CLOUDY    69  67  94 S6        29.94F
$$

NEZ044-045-051>053-067-182100-
OMAHA AREA

CITY           SKY/WX    TMP DP  RH WIND       PRES   REMARKS
OMAHA EPPLEY   CLOUDY    71  65  81 S9        29.93F
BLAIR          CLOUDY    69  66  89 S10       29.93F
FREMONT        CLOUDY    70  66  87 S8        29.93F
MILLARD        CLOUDY    71  67  87 S7        29.93F
OFFUTT AFB     CLOUDY    71  65  82 S8        29.92F
PLATTSMOUTH    CLOUDY    69  67  94 S6        29.94F
WAHOO          CLOUDY    71  67  88 S8        29.93F
$$




USA.gov is the U.S. government's official web portal to all federal, state and local government web resources and services.